Location: *
(50.8512°N, 5.6907°E)
Time: 23:32:06
(UTC+00:00)

Cosmos 1980 Rocket - Pass Details

Date: 09 April 2020
Orbit: 828 x 850 km, 71.0° (Epoch: 29 May)

Event Time Altitude Azimuth Distance (km) Brightness Sun altitude
Rises 21:35:54 0° 329° (NNW) 3,389 6.7 -25.4°
Reaches altitude 10° 21:38:20 10° 329° (NNW) 2,454 5.7 -25.7°
Maximum altitude 21:43:59 85° 242° (WSW) 848 2.1 -26.1°
Enters shadow 21:44:25 76° 175° (S) 867 2.0 -26.2°
